Weather History for Sacramento International, CA

Change the Weather History Date:

Sunday, May 19, 2013

  Actual Average Record
Temperature  
Mean Temperature 70 °F -  
Max Temperature 86 °F 82 °F 99 °F (2001)
Min Temperature 57 °F 51 °F 40 °F (1974)
Cooling Degree Days 6    
Growing Degree Days 20 (Base 50)    
Moisture  
Dew Point 42 °F    
Average Humidity 37    
Maximum Humidity 81    
Minimum Humidity 14    
Precipitation  
Precipitation 0.00 in - - ()
Sea Level Pressure  
Sea Level Pressure 30.03 in    
Wind  
Wind Speed 12 mph (NNW)    
Max Wind Speed 22 mph    
Max Gust Speed 29 mph    
Visibility 10 miles    
Events      
Averages and records for this station are not official NWS values.
T = Trace of Precipitation, MM = Missing Value Source: NWS Daily Summary

Daily Weather History Graph

Daily Weather History Graph

Search for Another Location

Airport:

Trip Planner

Search our weather history database for the weather conditions in past years. The results will help you decide how hot, cold, wet, or windy it might be!

Date:

Astronomy

May. 19, 2013 Rise Set
Actual Time 5:50 AM PDT 8:15 PM PDT
Civil Twilight 5:20 AM PDT 8:45 PM PDT
Nautical Twilight 4:43 AM PDT 9:23 PM PDT
Astronomical Twilight 4:01 AM PDT 10:04 PM PDT
Moon 2:28 PM PDT (5/19) 2:13 AM PDT (5/19)
Length of Visible Light 15h 25m
Length of Day
14h 24m
Waxing Gibbous, 66% of the Moon is Illuminated
May 19
Waxing Gibbous
May 24
Full
May 31
Last Quarter
Jun 8
New
Jun 16
First Quarter

Hourly Weather History & Observations

Time (PDT) Temp. Dew Point Humidity Pressure Visibility Wind Dir Wind Speed Gust Speed Precip Events Conditions
12:53 AM 64.0 °F 55.0 °F 73% 30.06 in 10.0 mi ENE 5.8 mph - N/A   Clear
1:53 AM 57.0 °F 51.1 °F 81% 30.06 in 10.0 mi North 6.9 mph - N/A   Clear
2:53 AM 61.0 °F 48.0 °F 62% 30.06 in 10.0 mi WNW 3.5 mph - N/A   Clear
3:53 AM 57.9 °F 43.0 °F 58% 30.06 in 10.0 mi NW 9.2 mph - N/A   Clear
4:53 AM 60.8 °F 39.2 °F 45% 30.07 in 10.0 mi NNW 10.4 mph - N/A   Clear
5:53 AM 60.1 °F 42.1 °F 51% 30.08 in 10.0 mi NNW 12.7 mph 21.9 mph N/A   Clear
6:53 AM 62.1 °F 43.0 °F 50% 30.09 in 10.0 mi NNW 15.0 mph - N/A   Clear
7:53 AM 66.0 °F 43.0 °F 43% 30.09 in 10.0 mi NNW 19.6 mph 26.5 mph N/A   Clear
8:53 AM 69.1 °F 42.1 °F 38% 30.10 in 10.0 mi NNW 20.7 mph - N/A   Clear
9:53 AM 72.0 °F 43.0 °F 35% 30.10 in 10.0 mi NNW 21.9 mph 28.8 mph N/A   Clear
10:53 AM 75.9 °F 42.1 °F 30% 30.09 in 10.0 mi NNW 20.7 mph 26.5 mph N/A   Clear
11:53 AM 78.8 °F 44.6 °F 30% 30.07 in 10.0 mi NNW 18.4 mph 26.5 mph N/A   Clear
12:53 PM 81.0 °F 43.0 °F 26% 30.05 in 10.0 mi NW 19.6 mph - N/A   Clear
1:53 PM 82.9 °F 37.9 °F 20% 30.03 in 10.0 mi NW 19.6 mph - N/A   Clear
2:53 PM 84.9 °F 30.9 °F 14% 30.01 in 10.0 mi NW 16.1 mph 24.2 mph N/A   Clear
3:53 PM 84.9 °F 32.0 °F 15% 29.99 in 10.0 mi NNW 17.3 mph - N/A   Clear
4:53 PM 84.9 °F 33.1 °F 16% 29.97 in 10.0 mi NNW 15.0 mph 23.0 mph N/A   Clear
5:53 PM 84.9 °F 37.9 °F 19% 29.96 in 10.0 mi NW 15.0 mph 19.6 mph N/A   Clear
6:53 PM 82.9 °F 37.9 °F 20% 29.94 in 10.0 mi NNW 16.1 mph - N/A   Clear
7:53 PM 79.0 °F 41.0 °F 26% 29.94 in 10.0 mi NNW 10.4 mph - N/A   Clear
8:53 PM 73.4 °F 42.8 °F 33% 29.94 in 10.0 mi NW 8.1 mph - N/A   Clear
9:53 PM 72.0 °F 42.1 °F 34% 29.95 in 10.0 mi WNW 8.1 mph - N/A   Clear
10:53 PM 70.0 °F 44.1 °F 39% 29.96 in 10.0 mi NW 11.5 mph - N/A   Clear
11:53 PM 69.1 °F 44.1 °F 40% 29.95 in 10.0 mi NW 12.7 mph - N/A   Clear